Location: Curupao
(10.4996°N, 66.6442°W)
Time: 22:29:39
(UTC+00:00)

Delta 7925 Rocket - Pass Details

Date: 23 May 2024
Orbit: 645 x 1644 km, 26.3° (Epoch: 22 June)

Event Time Altitude Azimuth Distance (km) Brightness Sun altitude
Rises 00:15:49 0° 242° (WSW) 3,306 7.3 -21.7°
Reaches altitude 10° 00:18:30 10° 240° (WSW) 2,259 6.3 -22.3°
Maximum altitude 00:23:39 80° 154° (SSE) 682 3.0 -23.4°
Enters shadow 00:24:04 72° 97° (E) 700 3.0 -23.5°
